sat.trackr.live / text

‹ back to catalog

UNKNOWN

NORAD 82484

UNKNOWN UNKNOWN UNKNOWN

§ Identity

Operator
Country
Launch date
Launch site
Launch vehicle
Mass (kg)
RCS (m²)

External: N2YO · Heavens-Above

§ Orbital elements

Epoch: 2026-09-15T23:32:39.640704Z

Period
106.20 min
Inclination
99.3428°
Eccentricity
0.0043881
Mean motion
13.55906642 rev/d
Perigee alt
1,018.0 km
Apogee alt
1,083.2 km
Semi-major
7,428.7 km
B*
1.1625e-4
RAAN
271.1756°
Arg perigee
210.2697°
Mean anomaly
149.5906°
Rev number
62,820

§ Raw data

UNKNOWN1 82484U          26258.98101436  .00000040  00000+0  11625-3 0  99922 82484  99.3428 271.1756 0043881 210.2697 149.5906 13.55906642628206

JSON: /api/v1/satellites/82484 · /tle

For live sub-satellite position, see the globe view (requires WebGL).

§ Visibility from observer

Set your observer location to see the next 7 days of passes ≥ 10°. The values pass through the URL so the page stays shareable.

No JS? Fill the form by hand. The geolocation button needs JavaScript.